{"data":{"norad_id":42989,"intl_designator":"2017-068C","name":"SKYSAT-C9","alt_names":[],"object_type":"PAYLOAD","status":"ACTIVE","operator":null,"country":"US","launch_date":"2017-10-31","launch_site_code":"AFWTR","launch_vehicle":null,"mission":null,"orbit_class":"UNKNOWN","rcs_meters":null,"size_class":null,"mass_kg":null,"dimensions":null,"purposes":["earth_obs"],"wikipedia_slug":null,"has_3d_model":false,"image_url":null,"decayed_at":null,"tle_current":{"epoch":"2026-09-20T03:20:43.100736Z","epoch_age_seconds":45556,"freshness":"FRESH","line1":"1 42989U 17068C   26263.13938774  .00010388  00000+0  23230-3 0  9997","line2":"2 42989  97.4550  42.9784 0008566 146.4310 213.7482 15.43649484497399","mean_motion":15.43649484,"eccentricity":0.0008566,"inclination_deg":97.455,"raan_deg":42.9784,"arg_perigee_deg":146.431,"mean_anomaly_deg":213.7482,"bstar":0.0002323,"rev_number":49739,"period_min":93.285426188113,"perigee_km":429.51275668176,"apogee_km":441.18562122067,"semimajor_km":6813.4861889512,"source":"CELESTRAK","updated_at":"2026-09-20T09:00:34.708575Z"}}}